Tracking 28790 objects as of 19-Apr-2024
HD Live streaming from Space Station
objects crossing your sky now

INTELSAT 4-F7

Track INTELSAT 4-F7 now!
INTELSAT 4-F7 is classified as:


NORAD ID: 6796
Int'l Code: 1973-058A
Perigee: 36,086.0 km
Apogee: 36,139.5 km
Inclination: 9.1 °
Period: 1,452.4 minutes
Semi major axis: 42483 km
RCS: 1.5964 m2 (large)
Launch date: August 23, 1973
Source: International Telecommunications Satellite Organization (ITSO)
Launch site: AIR FORCE EASTERN TEST RANGE (AFETR)
Your satellite tracking list
Your tracking list is empty




NASA's NSSDC Master Catalog

Two Line Element Set (TLE):
1  6796U 73058A   24110.13452369  .00000048  00000-0  00000+0 0  9993
2  6796   9.0644 303.6188 0006299 175.9426 359.9121  0.99144652127800
Source of the keplerian elements: AFSPC